Погода в Кууджуарапике

Канада     55°16′39″N   77°45′44″W
темп.,
°C
ветер,
м/с
пор.,
м/с
влажн.,
%
обл.,
%
осадки,
мм/ч
давл.,
гПа
погр.,
м
24 сентября, пт
пт2423:00+7вюв81556100 0.0 1023277
02:00+7вюв91759100 0.0 1020306
05:00+7вюв112055100 0.0 1017357
08:00+7в142356100 0.0 1013424
11:00+10вюв162366100 0.0 1010724
14:00+9вюв142190100 1.8 1006538
17:00+10юв101691100 2.2 1004415
20:00+11юв81495100 2.4 1002273
25 сентября, сб
сб2523:00+11ююв6996100 0.8 1001171
02:00+10ю4894100 1.7 1001148
05:00+8ююз9149090 0.6 1002529
08:00+8ююз101393100 0.7 1003709
11:00+10ююз101278100 0.0 1005625
14:00+13ююз911565 0.0 1005947
17:00+14ююз475573 0.0 1004841
20:00+12юв3583100 0.5 1004118
26 сентября, вс
вс2623:00+13юв61278100 0.6 1002287
02:00+13ю91486100 0.8 1002494
05:00+8ю91384100 0.1 1004532
08:00+9ю91279100 0.1 1004680
11:00+11ю8116933 0.0 1005954
14:00+12ю7961100 0.1 10041290
17:00+12ююз676427 0.1 1005921
20:00+8ю237848 0.1 100636
27 сентября, пн
пн2723:00+6вюв118542 0.0 100611
02:00+6зюз1186100 0.0 100511
05:00+6сз3390100 0.0 100535
08:00+7ссз71095100 0.0 1004327
11:00+8с101483100 0.0 1004608
14:00+8ссз101480100 0.0 1004682
17:00+7ссз101387100 0.0 1004652
20:00+6ссз101491100 0.2 1005593
28 сентября, вт
вт2823:00+6ссз101592100 0.1 1005594
02:00+6ссз101492100 0.1 1006576
05:00+6ссз10138997 0.0 1008558
08:00+6ссз9118593 0.0 1009591
11:00+6сз8108494 0.0 1010584
14:00+6сз81085100 0.1 1012582
17:00+6ссз71094100 0.1 1014552
20:00+6ссз6893100 0.1 1016452